QPF
0.01 0.00 0.00 0.00 0.01 0.01 0.01 0.00 0.00 0.00 0.00 0.01 0.02 0.03 0.03 0.04 0.04 0.04 0.03 0.03 0.04 0.03 0.04 0.05 0.07 0.04 0.07 0.06 0.06 0.07 0.08 0.08 0.09 0.10 0.10 0.08 0.06 0.06 0.05 0.04 0.04 0.03 0.03
0.01 0.00 0.00 0.00 0.00 0.00 0.00 0.00 0.00 0.00 0.00 0.01 0.02 0.03 0.04 0.03 0.04 0.04 0.04 0.02 0.04 0.03 0.03 0.04 0.05 0.05 0.06 0.05 0.06 0.07 0.09 0.09 0.09 0.11 0.14 0.15 0.14 0.09 0.04 0.03 0.02 0.02 0.02
0.00 0.00 0.00 0.00 0.00 0.00 0.00 0.00 0.00 0.01 0.01 0.01 0.02 0.03 0.04 0.03 0.04 0.04 0.05 0.03 0.03 0.03 0.04 0.04 0.04 0.05 0.04 0.06 0.05 0.05 0.08 0.11 0.08 0.08 0.12 0.16 0.17 0.13 0.07 0.04 0.03 0.03 0.02
0.00 0.00 0.00 0.00 0.00 0.00 0.00 0.00 0.00 0.01 0.01 0.01 0.02 0.02 0.02 0.03 0.05 0.05 0.04 0.04 0.03 0.03 0.04 0.04 0.04 0.04 0.05 0.06 0.03 0.06 0.06 0.08 0.08 0.07 0.08 0.09 0.10 0.12 0.12 0.08 0.05 0.05 0.03
0.00 0.00 0.00 0.00 0.00 0.00 0.00 0.00 0.00 0.01 0.01 0.00 0.01 0.02 0.02 0.04 0.05 0.05 0.07 0.08 0.05 0.04 0.03 0.04 0.05 0.05 0.06 0.05 0.04 0.06 0.05 0.06 0.05 0.06 0.07 0.08 0.08 0.07 0.10 0.11 0.10 0.07 0.03
0.00 0.00 0.00 0.00 0.00 0.00 0.00 0.00 0.01 0.00 0.01 0.01 0.02 0.02 0.04 0.06 0.08 0.09 0.09 0.08 0.05 0.04 0.02 0.03 0.05 0.05 0.06 0.06 0.05 0.03 0.04 0.05 0.06 0.06 0.06 0.06 0.07 0.07 0.09 0.10 0.10 0.08 0.04
0.00 0.00 0.00 0.00 0.00 0.00 0.00 0.01 0.01 0.01 0.01 0.01 0.02 0.03 0.05 0.06 0.06 0.07 0.08 0.07 0.04 0.04 0.05 0.06 0.06 0.05 0.05 0.05 0.06 0.05 0.04 0.05 0.05 0.06 0.05 0.04 0.04 0.04 0.06 0.07 0.08 0.07 0.05
0.00 0.00 0.00 0.00 0.00 0.00 0.00 0.00 0.01 0.01 0.02 0.02 0.02 0.03 0.05 0.05 0.06 0.08 0.08 0.06 0.04 0.04 0.06 0.10 0.08 0.05 0.05 0.05 0.08 0.06 0.06 0.06 0.05 0.05 0.06 0.05 0.03 0.04 0.03 0.05 0.09 0.08 0.06
0.00 0.00 0.00 0.00 0.00 0.00 0.00 0.01 0.02 0.02 0.02 0.02 0.02 0.02 0.03 0.04 0.06 0.07 0.06 0.05 0.05 0.04 0.05 0.08 0.09 0.06 0.07 0.07 0.08 0.07 0.07 0.08 0.07 0.06 0.08 0.06 0.05 0.04 0.04 0.05 0.07 0.11 0.09
0.00 0.00 0.00 0.00 0.00 0.00 0.01 0.02 0.03 0.03 0.04 0.04 0.03 0.03 0.04 0.05 0.06 0.06 0.06 0.06 0.05 0.05 0.05 0.06 0.06 0.06 0.07 0.07 0.08 0.07 0.08 0.08 0.07 0.07 0.09 0.08 0.06 0.07 0.05 0.06 0.07 0.10 0.11
0.00 0.01 0.01 0.01 0.00 0.00 0.01 0.03 0.05 0.05 0.05 0.06 0.06 0.07 0.07 0.06 0.07 0.06 0.06 0.06 0.07 0.06 0.05 0.06 0.05 0.05 0.05 0.07 0.08 0.07 0.08 0.09 0.10 0.08 0.08 0.08 0.09 0.09 0.07 0.08 0.08 0.10 0.13
0.00 0.01 0.03 0.02 0.01 0.00 0.00 0.02 0.03 0.04 0.05 0.08 0.07 0.08 0.09 0.08 0.07 0.07 0.07 0.08 0.06 0.06 0.05 0.06 0.06 0.05 0.06 0.08 0.07 0.06 0.08 0.09 0.09 0.08 0.10 0.09 0.11 0.11 0.09 0.11 0.10 0.09 0.11
0.00 0.01 0.02 0.04 0.03 0.01 0.01 0.02 0.02 0.02 0.03 0.05 0.06 0.06 0.06 0.07 0.07 0.08 0.08 0.07 0.07 0.07 0.06 0.06 0.05 0.06 0.06 0.07 0.06 0.06 0.07 0.07 0.08 0.10 0.10 0.10 0.15 0.13 0.13 0.12 0.10 0.09 0.10
0.00 0.00 0.01 0.02 0.03 0.01 0.02 0.03 0.02 0.02 0.03 0.04 0.03 0.04 0.04 0.05 0.06 0.08 0.08 0.08 0.08 0.08 0.07 0.07 0.07 0.07 0.08 0.08 0.08 0.08 0.08 0.09 0.10 0.11 0.11 0.11 0.13 0.14 0.14 0.12 0.09 0.09 0.12
0.01 0.01 0.01 0.01 0.02 0.02 0.02 0.02 0.01 0.02 0.02 0.03 0.03 0.03 0.05 0.05 0.05 0.05 0.06 0.07 0.07 0.06 0.07 0.07 0.08 0.08 0.08 0.07 0.08 0.09 0.09 0.11 0.10 0.10 0.11 0.11 0.12 0.12 0.12 0.10 0.11 0.11 0.11
0.03 0.03 0.02 0.02 0.02 0.02 0.03 0.03 0.03 0.03 0.03 0.03 0.04 0.04 0.05 0.05 0.04 0.04 0.05 0.06 0.06 0.07 0.08 0.08 0.07 0.07 0.05 0.07 0.06 0.05 0.06 0.08 0.08 0.09 0.10 0.09 0.09 0.08 0.08 0.08 0.09 0.10 0.11
0.03 0.03 0.03 0.02 0.02 0.02 0.03 0.05 0.04 0.04 0.04 0.04 0.04 0.04 0.04 0.05 0.04 0.05 0.06 0.07 0.07 0.08 0.08 0.08 0.08 0.06 0.06 0.06 0.05 0.03 0.03 0.05 0.07 0.08 0.08 0.05 0.04 0.06 0.07 0.08 0.07 0.08 0.08
0.06 0.04 0.03 0.02 0.02 0.02 0.03 0.03 0.03 0.03 0.03 0.03 0.03 0.03 0.04 0.04 0.05 0.06 0.06 0.07 0.08 0.08 0.09 0.08 0.08 0.07 0.06 0.08 0.05 0.04 0.03 0.04 0.04 0.04 0.05 0.06 0.06 0.07 0.09 0.09 0.09 0.07 0.07
0.09 0.07 0.06 0.03 0.02 0.02 0.03 0.03 0.02 0.02 0.02 0.01 0.02 0.03 0.04 0.05 0.05 0.05 0.05 0.07 0.08 0.07 0.07 0.07 0.06 0.05 0.07 0.08 0.04 0.03 0.02 0.03 0.05 0.05 0.05 0.05 0.06 0.08 0.06 0.08 0.10 0.11 0.12
0.03 0.03 0.03 0.02 0.02 0.01 0.02 0.03 0.03 0.04 0.03 0.02 0.02 0.04 0.04 0.04 0.04 0.05 0.05 0.06 0.06 0.06 0.05 0.06 0.06 0.05 0.05 0.05 0.03 0.02 0.03 0.04 0.04 0.05 0.05 0.06 0.05 0.06 0.06 0.07 0.11 0.13 0.13
0.03 0.03 0.02 0.02 0.03 0.02 0.02 0.03 0.04 0.04 0.03 0.02 0.02 0.03 0.03 0.03 0.04 0.05 0.06 0.06 0.06 0.05 0.05 0.05 0.06 0.05 0.04 0.04 0.03 0.03 0.03 0.04 0.04 0.05 0.05 0.05 0.05 0.03 0.04 0.05 0.07 0.08 0.09
0.03 0.03 0.04 0.03 0.03 0.03 0.02 0.03 0.03 0.02 0.02 0.02 0.02 0.02 0.03 0.03 0.04 0.05 0.06 0.06 0.06 0.06 0.06 0.07 0.07 0.07 0.06 0.05 0.04 0.04 0.03 0.03 0.04 0.05 0.05 0.04 0.04 0.03 0.03 0.02 0.03 0.04 0.04
0.04 0.05 0.07 0.06 0.06 0.07 0.04 0.04 0.04 0.03 0.01 0.02 0.03 0.03 0.04 0.06 0.07 0.08 0.09 0.10 0.09 0.08 0.07 0.07 0.07 0.09 0.09 0.06 0.05 0.03 0.03 0.03 0.03 0.03 0.04 0.03 0.03 0.02 0.02 0.02 0.02 0.02 0.03
0.02 0.03 0.05 0.06 0.08 0.07 0.04 0.04 0.04 0.02 0.02 0.01 0.02 0.03 0.04 0.06 0.07 0.09 0.11 0.13 0.13 0.13 0.11 0.09 0.09 0.10 0.10 0.09 0.07 0.06 0.06 0.06 0.05 0.04 0.03 0.03 0.02 0.02 0.02 0.02 0.03 0.03 0.03
0.02 0.02 0.02 0.03 0.03 0.03 0.03 0.04 0.04 0.03 0.03 0.02 0.02 0.02 0.03 0.03 0.04 0.06 0.10 0.14 0.18 0.20 0.19 0.18 0.17 0.15 0.13 0.13 0.12 0.09 0.08 0.07 0.05 0.04 0.03 0.02 0.02 0.02 0.02 0.02 0.02 0.02 0.02
0.02 0.02 0.01 0.01 0.01 0.02 0.03 0.03 0.04 0.04 0.03 0.03 0.03 0.03 0.03 0.02 0.03 0.03 0.05 0.07 0.10 0.11 0.11 0.12 0.14 0.13 0.12 0.12 0.12 0.11 0.09 0.07 0.06 0.04 0.03 0.03 0.03 0.02 0.02 0.01 0.02 0.02 0.03
MSLP
1009.39 1009.63 1009.90 1010.20 1010.50 1010.83 1011.16 1011.50 1011.84 1012.16 1012.46 1012.73 1012.95 1013.13 1013.28 1013.42 1013.54 1013.66 1013.80 1013.95 1014.12 1014.29 1014.46 1014.63 1014.81 1014.99 1015.18 1015.39 1015.62 1015.85 1016.09 1016.33 1016.54 1016.72 1016.86 1016.96 1017.01 1017.03 1017.04 1017.04 1017.07 1017.14 1017.26
1008.67 1008.94 1009.25 1009.59 1009.94 1010.30 1010.67 1011.05 1011.44 1011.83 1012.21 1012.55 1012.85 1013.10 1013.29 1013.43 1013.54 1013.64 1013.73 1013.83 1013.96 1014.11 1014.28 1014.46 1014.66 1014.87 1015.08 1015.29 1015.51 1015.73 1015.95 1016.17 1016.38 1016.56 1016.72 1016.85 1016.93 1016.97 1016.98 1016.96 1016.94 1016.95 1016.99
1007.83 1008.14 1008.49 1008.88 1009.28 1009.69 1010.10 1010.54 1010.98 1011.44 1011.89 1012.32 1012.69 1013.00 1013.24 1013.40 1013.50 1013.57 1013.62 1013.68 1013.78 1013.90 1014.07 1014.27 1014.48 1014.70 1014.92 1015.13 1015.33 1015.52 1015.71 1015.90 1016.10 1016.30 1016.48 1016.65 1016.77 1016.85 1016.87 1016.85 1016.80 1016.74 1016.69
1006.92 1007.26 1007.68 1008.13 1008.59 1009.05 1009.52 1010.00 1010.50 1011.02 1011.54 1012.03 1012.48 1012.85 1013.13 1013.32 1013.42 1013.46 1013.49 1013.51 1013.57 1013.67 1013.82 1014.02 1014.24 1014.46 1014.68 1014.87 1015.04 1015.21 1015.37 1015.54 1015.72 1015.93 1016.14 1016.35 1016.53 1016.65 1016.71 1016.70 1016.63 1016.51 1016.38
1006.02 1006.42 1006.90 1007.42 1007.94 1008.46 1008.97 1009.49 1010.03 1010.60 1011.17 1011.72 1012.22 1012.65 1012.97 1013.18 1013.29 1013.32 1013.31 1013.30 1013.32 1013.40 1013.52 1013.70 1013.91 1014.12 1014.32 1014.49 1014.64 1014.77 1014.90 1015.04 1015.22 1015.44 1015.69 1015.94 1016.18 1016.36 1016.47 1016.48 1016.40 1016.25 1016.06
1005.25 1005.70 1006.25 1006.84 1007.42 1007.99 1008.53 1009.08 1009.64 1010.22 1010.82 1011.40 1011.94 1012.41 1012.76 1013.00 1013.11 1013.14 1013.10 1013.06 1013.04 1013.07 1013.16 1013.30 1013.47 1013.66 1013.83 1013.97 1014.09 1014.18 1014.28 1014.41 1014.58 1014.80 1015.07 1015.37 1015.66 1015.91 1016.07 1016.13 1016.07 1015.92 1015.69
1004.70 1005.21 1005.83 1006.48 1007.11 1007.71 1008.27 1008.81 1009.36 1009.93 1010.52 1011.11 1011.67 1012.15 1012.53 1012.78 1012.91 1012.93 1012.88 1012.80 1012.73 1012.70 1012.74 1012.83 1012.95 1013.09 1013.22 1013.32 1013.39 1013.45 1013.51 1013.60 1013.75 1013.97 1014.26 1014.59 1014.93 1015.23 1015.47 1015.59 1015.59 1015.46 1015.24
1004.47 1005.03 1005.71 1006.41 1007.07 1007.67 1008.21 1008.72 1009.23 1009.76 1010.32 1010.89 1011.43 1011.92 1012.31 1012.58 1012.71 1012.73 1012.66 1012.55 1012.43 1012.35 1012.32 1012.34 1012.39 1012.47 1012.54 1012.58 1012.60 1012.60 1012.61 1012.66 1012.77 1012.96 1013.24 1013.57 1013.94 1014.30 1014.60 1014.80 1014.88 1014.83 1014.67
1004.58 1005.19 1005.90 1006.62 1007.29 1007.87 1008.37 1008.83 1009.27 1009.74 1010.24 1010.76 1011.28 1011.76 1012.15 1012.42 1012.57 1012.59 1012.51 1012.37 1012.22 1012.08 1011.98 1011.92 1011.90 1011.90 1011.89 1011.87 1011.81 1011.74 1011.68 1011.65 1011.69 1011.82 1012.04 1012.35 1012.72 1013.11 1013.47 1013.75 1013.93 1013.99 1013.94
1004.99 1005.64 1006.37 1007.09 1007.73 1008.27 1008.71 1009.10 1009.47 1009.86 1010.29 1010.76 1011.24 1011.70 1012.09 1012.37 1012.53 1012.56 1012.49 1012.34 1012.16 1011.97 1011.82 1011.69 1011.60 1011.51 1011.42 1011.31 1011.16 1011.00 1010.83 1010.69 1010.61 1010.63 1010.76 1011.00 1011.33 1011.72 1012.11 1012.47 1012.76 1012.94 1013.02
1005.62 1006.29 1007.01 1007.70 1008.30 1008.79 1009.18 1009.50 1009.79 1010.11 1010.48 1010.89 1011.33 1011.77 1012.16 1012.46 1012.64 1012.70 1012.65 1012.51 1012.32 1012.12 1011.93 1011.75 1011.59 1011.43 1011.26 1011.04 1010.79 1010.50 1010.20 1009.92 1009.69 1009.56 1009.55 1009.67 1009.91 1010.25 1010.65 1011.06 1011.43 1011.74 1011.95
1006.30 1006.96 1007.66 1008.32 1008.88 1009.33 1009.67 1009.94 1010.19 1010.46 1010.78 1011.15 1011.56 1011.98 1012.37 1012.69 1012.90 1013.00 1012.99 1012.89 1012.73 1012.54 1012.34 1012.14 1011.93 1011.71 1011.46 1011.16 1010.79 1010.38 1009.92 1009.47 1009.06 1008.75 1008.56 1008.51 1008.63 1008.88 1009.24 1009.66 1010.10 1010.50 1010.83
1006.88 1007.53 1008.20 1008.83 1009.36 1009.78 1010.11 1010.37 1010.61 1010.86 1011.16 1011.51 1011.91 1012.32 1012.72 1013.06 1013.31 1013.46 1013.50 1013.46 1013.35 1013.20 1013.02 1012.83 1012.61 1012.36 1012.05 1011.66 1011.20 1010.65 1010.05 1009.43 1008.83 1008.32 1007.93 1007.71 1007.66 1007.80 1008.08 1008.47 1008.92 1009.38 1009.79
1007.25 1007.87 1008.51 1009.12 1009.65 1010.09 1010.44 1010.73 1011.00 1011.27 1011.59 1011.94 1012.34 1012.76 1013.16 1013.52 1013.80 1014.00 1014.11 1014.14 1014.11 1014.02 1013.90 1013.74 1013.53 1013.27 1012.93 1012.50 1011.95 1011.30 1010.58 1009.81 1009.04 1008.35 1007.78 1007.38 1007.17 1007.16 1007.34 1007.66 1008.08 1008.55 1009.00
1007.32 1007.92 1008.54 1009.15 1009.71 1010.21 1010.63 1011.00 1011.34 1011.68 1012.04 1012.42 1012.83 1013.25 1013.65 1014.02 1014.34 1014.58 1014.76 1014.86 1014.90 1014.89 1014.83 1014.73 1014.57 1014.33 1013.98 1013.53 1012.94 1012.23 1011.42 1010.55 1009.67 1008.84 1008.12 1007.57 1007.22 1007.07 1007.14 1007.37 1007.72 1008.15 1008.58
1007.11 1007.69 1008.32 1008.96 1009.59 1010.17 1010.71 1011.20 1011.65 1012.07 1012.49 1012.92 1013.34 1013.76 1014.16 1014.53 1014.86 1015.14 1015.36 1015.52 1015.64 1015.70 1015.72 1015.68 1015.57 1015.37 1015.05 1014.61 1014.02 1013.30 1012.47 1011.56 1010.62 1009.73 1008.93 1008.28 1007.82 1007.57 1007.53 1007.66 1007.93 1008.27 1008.65
1006.68 1007.27 1007.93 1008.63 1009.35 1010.05 1010.72 1011.35 1011.92 1012.46 1012.95 1013.42 1013.86 1014.27 1014.66 1015.02 1015.35 1015.64 1015.89 1016.10 1016.27 1016.40 1016.48 1016.50 1016.44 1016.28 1016.01 1015.60 1015.05 1014.37 1013.57 1012.69 1011.78 1010.90 1010.10 1009.42 1008.92 1008.60 1008.47 1008.51 1008.69 1008.94 1009.22
1006.18 1006.78 1007.49 1008.27 1009.10 1009.93 1010.74 1011.51 1012.21 1012.85 1013.41 1013.92 1014.37 1014.78 1015.15 1015.49 1015.80 1016.09 1016.35 1016.59 1016.80 1016.96 1017.08 1017.14 1017.12 1017.01 1016.78 1016.43 1015.95 1015.34 1014.63 1013.85 1013.03 1012.23 1011.49 1010.86 1010.38 1010.04 1009.87 1009.85 1009.93 1010.08 1010.26
1005.76 1006.40 1007.16 1008.03 1008.96 1009.91 1010.85 1011.74 1012.54 1013.26 1013.89 1014.42 1014.88 1015.28 1015.64 1015.96 1016.26 1016.54 1016.81 1017.06 1017.27 1017.46 1017.59 1017.66 1017.66 1017.57 1017.38 1017.08 1016.68 1016.17 1015.58 1014.93 1014.26 1013.60 1012.98 1012.46 1012.03 1011.73 1011.55 1011.48 1011.49 1011.55 1011.64
1005.55 1006.24 1007.06 1008.00 1009.01 1010.05 1011.08 1012.05 1012.93 1013.71 1014.37 1014.93 1015.40 1015.79 1016.14 1016.46 1016.75 1017.04 1017.31 1017.56 1017.78 1017.96 1018.09 1018.16 1018.15 1018.06 1017.88 1017.62 1017.29 1016.88 1016.42 1015.92 1015.40 1014.91 1014.45 1014.04 1013.72 1013.47 1013.31 1013.22 1013.18 1013.17 1013.17
1005.66 1006.40 1007.27 1008.25 1009.31 1010.40 1011.47 1012.47 1013.38 1014.18 1014.86 1015.43 1015.90 1016.31 1016.67 1017.00 1017.32 1017.62 1017.91 1018.17 1018.39 1018.56 1018.67 1018.70 1018.67 1018.56 1018.38 1018.14 1017.85 1017.52 1017.17 1016.80 1016.44 1016.10 1015.79 1015.52 1015.30 1015.12 1014.99 1014.89 1014.82 1014.76 1014.70
1006.14 1006.91 1007.80 1008.79 1009.86 1010.94 1012.00 1012.99 1013.88 1014.66 1015.34 1015.90 1016.39 1016.82 1017.21 1017.58 1017.94 1018.28 1018.60 1018.89 1019.12 1019.29 1019.37 1019.37 1019.29 1019.14 1018.94 1018.69 1018.42 1018.15 1017.87 1017.62 1017.38 1017.17 1016.98 1016.82 1016.68 1016.56 1016.46 1016.36 1016.27 1016.18 1016.07
1006.96 1007.74 1008.62 1009.59 1010.61 1011.64 1012.64 1013.57 1014.40 1015.14 1015.78 1016.33 1016.83 1017.28 1017.72 1018.15 1018.58 1018.99 1019.37 1019.70 1019.95 1020.12 1020.19 1020.16 1020.03 1019.84 1019.60 1019.33 1019.06 1018.80 1018.58 1018.38 1018.22 1018.10 1017.99 1017.90 1017.82 1017.74 1017.66 1017.57 1017.46 1017.35 1017.22
1008.04 1008.81 1009.67 1010.58 1011.52 1012.46 1013.35 1014.18 1014.92 1015.58 1016.17 1016.70 1017.20 1017.68 1018.17 1018.67 1019.18 1019.66 1020.12 1020.50 1020.80 1020.98 1021.05 1020.99 1020.84 1020.61 1020.33 1020.04 1019.75 1019.50 1019.28 1019.12 1019.00 1018.92 1018.86 1018.81 1018.75 1018.69 1018.61 1018.51 1018.40 1018.28 1018.15
1009.27 1010.03 1010.83 1011.67 1012.51 1013.32 1014.09 1014.79 1015.42 1015.98 1016.50 1016.99 1017.48 1017.98 1018.52 1019.09 1019.66 1020.23 1020.76 1021.21 1021.55 1021.77 1021.85 1021.79 1021.63 1021.38 1021.08 1020.77 1020.46 1020.20 1019.99 1019.84 1019.74 1019.67 1019.62 1019.58 1019.53 1019.46 1019.38 1019.27 1019.15 1019.02 1018.90
1010.55 1011.27 1012.02 1012.77 1013.49 1014.18 1014.81 1015.38 1015.88 1016.34 1016.77 1017.21 1017.67 1018.18 1018.74 1019.35 1019.99 1020.62 1021.21 1021.72 1022.11 1022.37 1022.48 1022.45 1022.29 1022.05 1021.76 1021.45 1021.15 1020.89 1020.69 1020.54 1020.44 1020.38 1020.33 1020.29 1020.23 1020.16 1020.06 1019.95 1019.83 1019.70 1019.59
Thickness
5825 5826 5824 5820 5815 5809 5803 5799 5795 5792 5789 5785 5781 5778 5776 5776 5775 5774 5771 5768 5766 5764 5762 5761 5759 5758 5756 5755 5754 5753 5751 5750 5751 5746 5744 5746 5749 5748 5748 5747 5746 5744 5743
5823 5823 5823 5820 5814 5808 5803 5799 5796 5792 5790 5787 5784 5781 5779 5777 5776 5775 5772 5769 5766 5764 5763 5761 5759 5758 5756 5755 5754 5752 5749 5749 5751 5745 5739 5736 5738 5744 5750 5748 5747 5746 5745
5825 5823 5821 5819 5816 5810 5805 5802 5798 5794 5791 5789 5786 5783 5780 5777 5775 5773 5770 5769 5767 5765 5764 5762 5761 5760 5758 5755 5754 5753 5749 5746 5748 5749 5741 5733 5730 5736 5744 5747 5748 5747 5746
5833 5828 5824 5820 5817 5814 5810 5806 5801 5797 5793 5790 5786 5781 5776 5772 5773 5773 5772 5770 5768 5766 5765 5763 5762 5760 5760 5757 5756 5755 5753 5749 5745 5747 5748 5745 5742 5734 5733 5741 5746 5747 5746
5838 5833 5829 5825 5822 5819 5814 5809 5803 5798 5795 5792 5789 5784 5780 5778 5777 5776 5772 5770 5769 5768 5766 5764 5763 5761 5759 5758 5757 5755 5754 5752 5748 5747 5746 5745 5744 5743 5735 5732 5738 5743 5746
5844 5839 5836 5830 5825 5823 5818 5812 5804 5799 5796 5793 5790 5786 5782 5779 5777 5774 5771 5768 5769 5768 5767 5766 5764 5762 5760 5759 5758 5756 5754 5752 5751 5749 5748 5745 5742 5740 5739 5734 5735 5737 5744
5847 5842 5836 5831 5826 5823 5819 5814 5806 5800 5797 5794 5791 5788 5785 5782 5777 5774 5772 5770 5769 5768 5768 5768 5765 5764 5762 5761 5760 5758 5755 5754 5751 5749 5748 5747 5747 5747 5744 5739 5736 5737 5742
5850 5846 5842 5835 5830 5826 5821 5816 5809 5802 5799 5795 5792 5791 5787 5784 5780 5777 5775 5773 5772 5772 5772 5769 5766 5765 5764 5763 5761 5759 5757 5755 5753 5752 5750 5748 5748 5748 5746 5742 5737 5733 5735
5849 5846 5843 5838 5833 5828 5824 5819 5812 5805 5801 5798 5794 5791 5789 5786 5783 5781 5778 5776 5776 5776 5774 5771 5768 5766 5765 5764 5762 5759 5758 5756 5754 5752 5751 5749 5749 5749 5748 5746 5743 5734 5727
5847 5843 5841 5838 5835 5832 5827 5822 5816 5809 5804 5800 5796 5793 5790 5787 5785 5782 5779 5777 5777 5776 5774 5772 5769 5767 5766 5764 5762 5760 5759 5757 5755 5753 5751 5749 5749 5749 5748 5747 5744 5741 5734
5844 5842 5839 5837 5836 5833 5829 5822 5816 5810 5805 5801 5798 5795 5791 5788 5784 5781 5780 5778 5777 5775 5773 5771 5769 5767 5765 5764 5762 5760 5759 5757 5755 5754 5752 5750 5749 5747 5747 5746 5744 5741 5738
5842 5841 5839 5835 5832 5830 5827 5821 5817 5811 5806 5802 5798 5794 5791 5787 5784 5781 5780 5778 5777 5775 5773 5770 5767 5766 5765 5763 5761 5759 5759 5757 5755 5753 5752 5750 5749 5747 5746 5744 5742 5741 5740
5834 5832 5831 5828 5827 5827 5824 5821 5816 5811 5808 5803 5797 5793 5790 5786 5783 5782 5780 5779 5776 5773 5772 5770 5766 5765 5764 5762 5761 5759 5758 5757 5756 5754 5752 5750 5748 5745 5744 5743 5742 5741 5741
5823 5824 5822 5821 5821 5821 5819 5816 5813 5811 5806 5802 5797 5792 5789 5787 5784 5782 5780 5778 5775 5772 5770 5768 5766 5764 5762 5761 5760 5758 5757 5755 5754 5754 5752 5751 5748 5745 5744 5742 5741 5740 5737
5813 5814 5814 5814 5814 5814 5813 5811 5809 5807 5805 5800 5795 5792 5790 5787 5785 5782 5779 5776 5774 5771 5769 5766 5764 5762 5761 5759 5757 5756 5755 5753 5751 5751 5750 5749 5748 5746 5744 5742 5739 5737 5734
5805 5805 5807 5807 5807 5807 5806 5805 5804 5803 5801 5796 5792 5790 5787 5784 5782 5779 5776 5773 5770 5768 5766 5763 5760 5758 5758 5755 5754 5753 5752 5750 5748 5747 5746 5746 5745 5743 5741 5739 5737 5734 5731
5797 5797 5799 5800 5801 5801 5801 5799 5799 5799 5796 5791 5789 5787 5784 5780 5778 5776 5772 5769 5767 5764 5762 5760 5757 5755 5753 5751 5750 5748 5747 5746 5744 5743 5741 5741 5742 5740 5738 5737 5734 5732 5729
5789 5789 5792 5794 5796 5796 5795 5794 5793 5790 5788 5785 5783 5782 5779 5776 5773 5770 5767 5765 5763 5760 5758 5755 5753 5751 5749 5747 5745 5743 5742 5741 5739 5737 5736 5735 5734 5733 5731 5731 5730 5727 5725
5783 5784 5786 5787 5788 5787 5788 5786 5784 5783 5781 5779 5777 5776 5774 5770 5767 5765 5762 5761 5759 5756 5754 5752 5749 5746 5743 5741 5740 5738 5738 5735 5733 5732 5730 5728 5727 5725 5725 5724 5722 5721 5719
5778 5778 5780 5780 5778 5779 5779 5777 5776 5774 5773 5773 5773 5772 5770 5767 5764 5761 5758 5756 5754 5751 5749 5747 5745 5742 5738 5736 5734 5733 5732 5730 5727 5726 5724 5721 5719 5717 5717 5716 5714 5711 5709
5771 5772 5771 5769 5768 5770 5770 5768 5767 5765 5767 5768 5767 5766 5764 5761 5759 5757 5754 5751 5748 5745 5743 5740 5738 5735 5733 5730 5727 5725 5725 5723 5720 5718 5716 5713 5710 5709 5708 5706 5704 5701 5700
5762 5763 5761 5759 5759 5760 5759 5758 5757 5759 5761 5760 5759 5757 5756 5756 5754 5749 5747 5744 5741 5738 5735 5732 5729 5727 5725 5722 5719 5717 5715 5714 5712 5710 5708 5704 5702 5701 5699 5697 5695 5693 5692
5752 5753 5752 5749 5749 5749 5750 5747 5748 5751 5751 5751 5749 5748 5747 5746 5744 5740 5738 5735 5733 5730 5726 5724 5720 5719 5717 5714 5711 5708 5706 5705 5703 5701 5698 5695 5693 5692 5689 5687 5685 5684 5683
5742 5743 5741 5739 5737 5738 5739 5740 5741 5742 5742 5740 5740 5739 5737 5734 5731 5729 5727 5723 5721 5720 5718 5715 5712 5710 5708 5705 5702 5700 5697 5695 5694 5692 5689 5686 5684 5683 5680 5678 5676 5674 5672
5731 5731 5730 5728 5727 5728 5729 5732 5733 5733 5732 5731 5730 5729 5727 5723 5719 5715 5711 5710 5706 5705 5706 5705 5703 5700 5697 5692 5691 5690 5689 5687 5684 5682 5680 5678 5675 5672 5670 5668 5666 5663 5661
5721 5721 5720 5720 5719 5720 5721 5722 5724 5724 5722 5721 5721 5721 5718 5715 5711 5706 5700 5695 5694 5692 5691 5690 5690 5687 5685 5684 5683 5682 5679 5677 5675 5673 5670 5665 5662 5659 5657 5655 5652 5650 5648